Hourly Data Report for July 17, 2012

HALIFAX STANFIELD INT'L A
NOVA SCOTIA

44°52'48.060" N
63°30'00.050" W
145.40 m
8202250
71395
YHZ

Download Data

Hourly Data (July 2012)
Hourly Data Report for July 17, 2012
TIME
LST
Temp Definition
°C
Dew Point Definition
°C
Rel Hum Definition
%
Precip. Amount Definition
mm

Wind Dir Definition
10's deg

Wind Spd Definition
km/h
Visibility Definition
km
Stn Press Definition
kPa
Hmdx Definition


Wind Chill Definition


Weather Definition


00:00 16.6 16.6 100   17 11 3.2 99.12     Fog
01:00 16.6 16.6 100   17 9 2.4 99.06     Rain Showers, Fog
02:00 16.6 16.6 100   18 4 1.6 99.04     Fog
03:00 16.6 16.6 100     0 2.4 99.06     Fog
04:00 16.9 16.8 99   25 4 4.0 99.06     Fog
05:00 17.0 17.0 100   28 7 4.8 99.08     Fog
06:00 16.9 16.9 100   36 6 2.4 99.03     Fog
07:00 17.4 17.2 99     0 6.4 99.03     Fog
08:00 18.4 17.1 92   31 7 16.1 99.11     Cloudy
09:00 19.1 17.3 89   31 13 16.1 99.11     Cloudy
10:00 19.9 17.5 86   34 9 24.1 99.11     Cloudy
11:00 20.6 18.1 86   24 6 24.1 99.12 27   Cloudy
12:00 21.6 17.9 79   22 7 24.1 99.10 28   Cloudy
13:00 23.8 19.0 75   23 7 24.1 99.07 31   Cloudy
14:00 23.8 18.4 72   25 7 24.1 99.02 30   Cloudy
15:00 24.9 19.0 70   22 6 24.1 98.99 32   Mostly Cloudy
16:00 23.5 19.2 77   17 15 24.1 98.98 30   Mostly Cloudy
17:00 21.9 18.5 81   17 17 24.1 98.99 28   Cloudy
18:00 20.9 18.1 84   18 13 24.1 98.99 27   Cloudy
19:00 20.1 17.4 84   20 9 19.3 99.02 26   Cloudy
20:00 18.8 17.6 93   19 13 19.3 99.06     Cloudy
21:00 18.6 17.5 93   19 15 19.3 99.05     Cloudy
22:00 18.5 17.7 95   16 13 12.9 98.99     Cloudy
23:00 18.5 17.8 96   17 15 12.9 98.98     Rain Showers

Notes on Data Quality.

Legend

  • E = Estimated
  • M = Missing
  • NA = Not Available*
  • [empty] = Indicates an unobserved value
Date modified: